Flag for China Weather past 2 weeks in Dalian, Liaoning, China

Now
66 °F

Fog.


Feels Like: 66 °F
Forecast: 59 / 65 °F
Wind: 8 mph from Southwest

Location: Dalian Airport

Current Time: Oct 23, 2014 at 11:31:22 AM

Latest Report: Oct 23, 2014 at 11:00 AM


Visibility: 2 mi

Pressure: 30.07 "Hg

Humidity: 60%

Dew point: 52 °F

Location of DalianLocation

Historic Weather in Dalian — Graph

°F

Dalian temperature yesterday

Maximum temperature yesterday: 63 °F (at 12:30 PM)
Minimum temperature yesterday: 45 °F (at 4:30 AM)
Average temperature yesterday: 52 °F

Past Weeks' High & Low Weather Summary

 TemperatureHumidityPressure
High77 °F (Oct 18, 2:30 PM)100% (Oct 9, 12:00 AM)30.33 "Hg (Oct 9, 12:00 AM)
Low45 °F (Oct 14, 6:00 AM)19% (Oct 16, 12:00 PM)29.86 "Hg (Oct 15, 2:00 PM)
Average59 °F60%30.12 "Hg
* Reported Oct 8 10:00 AM — Oct 23 10:30 AM, Dalian, Weather by CustomWeather, © 2014

Note: Actual official high and low records may vary slightly from our data, if they occured in-between our weather recording intervals... More about our weather records

Advertising

Dalian weather history for previous 24 hours

 ConditionsComfort  
Time TempWeatherWind HumidityBarometerVisibility
10:30 AM
Oct 23
64 °FFog.6 mph64%30.07 "Hg2 mi
10:00 AM64 °FFog.6 mph64%30.07 "Hg2 mi
9:30 AM63 °FFog.3 mph68%30.07 "Hg2 mi
9:00 AM61 °FFog.6 mph72%30.07 "Hg2 mi
8:30 AM61 °FFog.6 mph72%30.09 "Hg2 mi
8:00 AM59 °FFog.3 mph77%30.09 "Hg2 mi
7:30 AM55 °FFog.3 mph82%30.09 "Hg2 mi
7:00 AM52 °FFog.1 mph88%30.07 "Hg2 mi
6:30 AM52 °FFog.3 mph88%30.07 "Hg3 mi
6:00 AM54 °FFog.3 mph77%30.07 "Hg3 mi
5:30 AM54 °FFog.3 mph82%30.07 "Hg3 mi
5:00 AM50 °FFog.No wind82%30.09 "Hg3 mi
4:30 AM48 °FFog.1 mph87%30.07 "Hg3 mi
4:00 AM48 °FFog.1 mph87%30.09 "Hg3 mi
3:30 AM48 °FFog.1 mph82%30.09 "Hg3 mi
3:00 AM48 °FClear.No wind82%30.09 "Hg4 mi
2:30 AM48 °FClear.1 mph76%30.09 "Hg4 mi
2:00 AM48 °FClear.No wind76%30.09 "Hg4 mi
1:30 AM50 °FClear.1 mph71%30.12 "Hg4 mi
1:00 AM48 °FClear.No wind76%30.12 "Hg4 mi
12:30 AM48 °FClear.No wind76%30.12 "Hg4 mi
12:00 AM48 °FClear.No wind71%30.12 "Hg4 mi
11:30 PM
Oct 22
48 °FClear.No wind71%30.15 "Hg4 mi
11:00 PM50 °FClear.1 mph62%30.15 "Hg4 mi
10:30 PM50 °FClear.1 mph62%30.15 "Hg4 mi
10:00 PM50 °FClear.1 mph62%30.15 "Hg4 mi
9:30 PM50 °FClear.1 mph62%30.15 "Hg4 mi
9:00 PM50 °FClear.1 mph62%30.15 "Hg4 mi
8:30 PM50 °FClear.3 mph58%30.15 "Hg4 mi
8:00 PM52 °FClear.1 mph54%30.15 "Hg4 mi
7:30 PM52 °FClear.1 mph54%30.15 "Hg4 mi
7:00 PM52 °FClear.1 mph54%30.15 "Hg4 mi
6:30 PM54 °FClear.1 mph51%30.15 "Hg5 mi
6:00 PM52 °FClear.3 mph54%30.15 "Hg10 mi
5:30 PM54 °FClear.6 mph47%30.15 "Hg10 mi
5:00 PM55 °FSunny.6 mph38%30.15 "Hg10 mi
4:30 PM57 °FPassing clouds.6 mph33%30.15 "HgN/A
4:00 PM59 °FSunny.6 mph31%30.15 "Hg10 mi
3:30 PM59 °FSunny.8 mph29%30.15 "Hg10 mi
3:00 PM61 °FPassing clouds.8 mph27%30.15 "HgN/A
2:30 PM61 °FClear.6 mph23%30.15 "Hg5 mi
2:00 PM59 °FClear.8 mph34%30.15 "Hg4 mi
1:30 PM61 °FClear.10 mph34%30.15 "Hg4 mi
1:00 PM61 °FClear.8 mph29%30.18 "Hg4 mi
12:30 PM63 °FClear.1 mph20%30.18 "Hg4 mi
12:00 PM61 °FClear.1 mph23%30.18 "Hg4 mi
11:30 AM61 °FClear.3 mph22%30.21 "Hg4 mi
11:00 AM59 °FClear.1 mph23%30.21 "Hg4 mi
Weather by CustomWeather, © 2014

See weather overviewHow to use our weather pages